Time,TemperatureF,DewpointF,PressureIn,WindDirection,WindDirectionDegrees,WindSpeedMPH,WindSpeedGustMPH,Humidity,HourlyPrecipIn,Conditions,Clouds,dailyrainin,SolarRadiationWatts/m^2,SoftwareType,DateUTC
2013-10-27 00:21:00,41.0,31.0,-100.00,North,350,4.0,8.0,68,0.00,,,0.00,0.000000,,2013-10-27 06:21:00,
2013-10-27 00:32:00,41.0,31.0,-100.00,North,350,4.0,8.0,68,0.00,,,0.00,0.000000,,2013-10-27 06:32:00,
2013-10-27 00:42:00,41.0,31.0,-100.00,North,350,4.0,8.0,68,0.00,,,0.00,0.000000,,2013-10-27 06:42:00,
2013-10-27 00:53:00,41.0,31.0,-100.00,North,350,4.0,8.0,68,0.00,,,0.00,0.000000,,2013-10-27 06:53:00,
2013-10-27 01:21:00,41.0,33.0,-100.00,NNE,25,1.0,7.0,72,0.00,,,0.00,0.000000,,2013-10-27 07:21:00,
2013-10-27 01:32:00,41.0,33.0,-100.00,NNE,25,1.0,7.0,72,0.00,,,0.00,0.000000,,2013-10-27 07:32:00,
2013-10-27 01:42:00,41.0,33.0,-100.00,NNE,25,1.0,7.0,72,0.00,,,0.00,0.000000,,2013-10-27 07:42:00,
2013-10-27 01:52:00,41.0,33.0,-100.00,NNE,25,1.0,7.0,72,0.00,,,0.00,0.000000,,2013-10-27 07:52:00,
2013-10-27 02:22:00,39.0,31.0,-100.00,North,354,3.0,7.0,73,0.00,,,0.00,0.000000,,2013-10-27 08:22:00,
2013-10-27 02:32:00,39.0,31.0,-100.00,North,354,3.0,7.0,73,0.00,,,0.00,0.000000,,2013-10-27 08:32:00,
2013-10-27 02:42:00,39.0,31.0,-100.00,North,354,3.0,7.0,73,0.00,,,0.00,0.000000,,2013-10-27 08:42:00,
2013-10-27 02:52:00,39.0,31.0,-100.00,North,354,3.0,7.0,73,0.00,,,0.00,0.000000,,2013-10-27 08:52:00,
2013-10-27 03:21:00,39.0,31.0,-100.00,ENE,71,1.0,8.0,74,0.00,,,0.00,0.000000,,2013-10-27 09:21:00,
2013-10-27 03:33:00,39.0,31.0,-100.00,ENE,71,1.0,8.0,74,0.00,,,0.00,0.000000,,2013-10-27 09:33:00,
2013-10-27 03:43:00,39.0,31.0,-100.00,ENE,71,1.0,8.0,74,0.00,,,0.00,0.000000,,2013-10-27 09:43:00,
2013-10-27 03:53:00,39.0,31.0,-100.00,ENE,71,1.0,8.0,74,0.00,,,0.00,0.000000,,2013-10-27 09:53:00,
2013-10-27 04:23:00,38.0,31.0,-100.00,NNE,19,4.0,6.0,76,0.00,,,0.00,0.000000,,2013-10-27 10:23:00,
2013-10-27 04:33:00,38.0,31.0,-100.00,NNE,19,4.0,6.0,76,0.00,,,0.00,0.000000,,2013-10-27 10:33:00,
2013-10-27 04:42:00,38.0,31.0,-100.00,NNE,19,4.0,6.0,76,0.00,,,0.00,0.000000,,2013-10-27 10:42:00,
2013-10-27 04:53:00,38.0,31.0,-100.00,NNE,19,4.0,6.0,76,0.00,,,0.00,0.000000,,2013-10-27 10:53:00,
2013-10-27 05:22:00,38.0,31.0,-100.00,NNE,22,3.0,5.0,75,0.00,,,0.00,0.000000,,2013-10-27 11:22:00,
2013-10-27 05:33:00,38.0,31.0,-100.00,NNE,22,3.0,5.0,75,0.00,,,0.00,0.000000,,2013-10-27 11:33:00,
2013-10-27 05:42:00,38.0,31.0,-100.00,NNE,22,3.0,5.0,75,0.00,,,0.00,0.000000,,2013-10-27 11:42:00,
2013-10-27 05:52:00,38.0,31.0,-100.00,NNE,22,3.0,5.0,75,0.00,,,0.00,0.000000,,2013-10-27 11:52:00,
2013-10-27 06:22:00,37.0,30.0,-100.00,NNW,345,4.0,7.0,77,0.00,,,0.00,0.000000,,2013-10-27 12:22:00,
2013-10-27 06:32:00,37.0,30.0,-100.00,NNW,345,4.0,7.0,77,0.00,,,0.00,0.000000,,2013-10-27 12:32:00,
2013-10-27 06:42:00,37.0,30.0,-100.00,NNW,345,4.0,7.0,77,0.00,,,0.00,0.000000,,2013-10-27 12:42:00,
2013-10-27 06:52:00,37.0,30.0,-100.00,NNW,345,4.0,7.0,77,0.00,,,0.00,0.000000,,2013-10-27 12:52:00,
2013-10-27 07:21:00,37.0,31.0,-100.00,NE,48,2.0,4.0,78,0.00,,,0.00,0.000000,,2013-10-27 13:21:00,
2013-10-27 07:32:00,37.0,31.0,-100.00,NE,48,2.0,4.0,78,0.00,,,0.00,0.000000,,2013-10-27 13:32:00,
2013-10-27 07:42:00,37.0,31.0,-100.00,NE,48,2.0,4.0,78,0.00,,,0.00,0.000000,,2013-10-27 13:42:00,
2013-10-27 07:52:00,37.0,31.0,-100.00,NE,48,2.0,4.0,78,0.00,,,0.00,0.000000,,2013-10-27 13:52:00,
2013-10-27 08:42:00,37.0,31.0,-100.00,ESE,115,1.0,6.0,78,0.00,,,0.00,7.000000,,2013-10-27 14:42:00,
2013-10-27 10:53:00,49.0,34.0,-100.00,SSE,154,4.0,5.0,55,-99.99,,,0.00,333.000000,,2013-10-27 16:53:00,
2013-10-27 11:22:00,53.0,34.0,-100.00,SE,140,5.0,10.0,48,0.00,,,0.00,503.000000,,2013-10-27 17:22:00,
2013-10-27 11:34:00,53.0,34.0,-100.00,SE,140,5.0,10.0,48,0.00,,,0.00,503.000000,,2013-10-27 17:34:00,
2013-10-27 11:43:00,53.0,34.0,-100.00,SE,140,5.0,10.0,48,0.00,,,0.00,503.000000,,2013-10-27 17:43:00,
2013-10-27 11:53:00,53.0,34.0,-100.00,SE,140,5.0,10.0,48,0.00,,,0.00,503.000000,,2013-10-27 17:53:00,
2013-10-27 12:22:00,54.0,34.0,-100.00,SSE,158,5.0,8.0,46,0.00,,,0.00,518.000000,,2013-10-27 18:22:00,
2013-10-27 12:32:00,54.0,34.0,-100.00,SSE,158,5.0,8.0,46,0.00,,,0.00,518.000000,,2013-10-27 18:32:00,
2013-10-27 12:43:00,54.0,34.0,-100.00,SSE,158,5.0,8.0,46,0.00,,,0.00,518.000000,,2013-10-27 18:43:00,
2013-10-27 12:52:00,54.0,34.0,-100.00,SSE,158,5.0,8.0,46,0.00,,,0.00,518.000000,,2013-10-27 18:52:00,
2013-10-27 13:22:00,54.0,34.0,-100.00,SW,229,3.0,9.0,46,0.00,,,-99.99,377.000000,,2013-10-27 19:22:00,
2013-10-27 13:32:00,54.0,34.0,-100.00,SW,229,3.0,9.0,46,0.00,,,-99.99,377.000000,,2013-10-27 19:32:00,
2013-10-27 13:42:00,54.0,34.0,-100.00,SW,229,3.0,9.0,46,0.00,,,-99.99,377.000000,,2013-10-27 19:42:00,
2013-10-27 13:52:00,54.0,34.0,-100.00,SW,229,3.0,9.0,46,0.00,,,-99.99,377.000000,,2013-10-27 19:52:00,
2013-10-27 14:22:00,58.0,33.0,-100.00,SW,221,5.0,11.0,39,0.00,,,0.00,579.000000,,2013-10-27 20:22:00,
2013-10-27 14:32:00,58.0,33.0,-100.00,SW,221,5.0,11.0,39,0.00,,,0.00,579.000000,,2013-10-27 20:32:00,
2013-10-27 14:42:00,58.0,33.0,-100.00,SW,221,5.0,11.0,39,0.00,,,0.00,579.000000,,2013-10-27 20:42:00,
2013-10-27 14:52:00,58.0,33.0,-100.00,SW,221,5.0,11.0,39,0.00,,,0.00,579.000000,,2013-10-27 20:52:00,
2013-10-27 15:21:00,58.0,31.0,-100.00,SSW,207,6.0,14.0,36,0.00,,,0.00,523.000000,,2013-10-27 21:21:00,
2013-10-27 15:34:00,58.0,31.0,-100.00,SSW,207,6.0,14.0,36,0.00,,,0.00,523.000000,,2013-10-27 21:34:00,
2013-10-27 15:43:00,58.0,31.0,-100.00,SSW,207,6.0,14.0,36,0.00,,,0.00,523.000000,,2013-10-27 21:43:00,
2013-10-27 15:54:00,58.0,31.0,-100.00,SSW,207,6.0,14.0,36,0.00,,,0.00,523.000000,,2013-10-27 21:54:00,
2013-10-27 16:24:00,58.0,29.0,-100.00,West,281,4.0,10.0,33,0.00,,,0.00,461.000000,,2013-10-27 22:24:00,
2013-10-27 16:33:00,58.0,29.0,-100.00,West,281,4.0,10.0,33,0.00,,,0.00,461.000000,,2013-10-27 22:33:00,
2013-10-27 16:43:00,58.0,29.0,-100.00,West,281,4.0,10.0,33,0.00,,,0.00,461.000000,,2013-10-27 22:43:00,
2013-10-27 16:54:00,58.0,29.0,-100.00,West,281,4.0,10.0,33,0.00,,,0.00,461.000000,,2013-10-27 22:54:00,
2013-10-27 17:22:00,59.0,27.0,-100.00,SSW,192,6.0,13.0,29,0.00,,,0.00,354.000000,,2013-10-27 23:22:00,
2013-10-27 17:33:00,59.0,27.0,-100.00,SSW,192,6.0,13.0,29,0.00,,,0.00,354.000000,,2013-10-27 23:33:00,
2013-10-27 17:42:00,59.0,27.0,-100.00,SSW,192,6.0,13.0,29,0.00,,,0.00,354.000000,,2013-10-27 23:42:00,
2013-10-27 17:52:00,59.0,27.0,-100.00,SSW,192,6.0,13.0,29,0.00,,,0.00,354.000000,,2013-10-27 23:52:00,
2013-10-27 18:22:00,56.0,27.0,-100.00,SSW,203,3.0,11.0,33,0.00,,,0.00,162.000000,,2013-10-28 00:22:00,
2013-10-27 18:32:00,56.0,27.0,-100.00,SSW,203,3.0,11.0,33,0.00,,,0.00,162.000000,,2013-10-28 00:32:00,
2013-10-27 18:42:00,56.0,27.0,-100.00,SSW,203,3.0,11.0,33,0.00,,,0.00,162.000000,,2013-10-28 00:42:00,
2013-10-27 18:52:00,56.0,27.0,-100.00,SSW,203,3.0,11.0,33,0.00,,,0.00,162.000000,,2013-10-28 00:52:00,
2013-10-27 19:21:00,49.0,26.0,-100.00,NNE,12,5.0,7.0,41,0.00,,,0.00,6.000000,,2013-10-28 01:21:00,
2013-10-27 19:32:00,49.0,26.0,-100.00,NNE,12,5.0,7.0,41,0.00,,,0.00,6.000000,,2013-10-28 01:32:00,
2013-10-27 19:42:00,49.0,26.0,-100.00,NNE,12,5.0,7.0,41,0.00,,,0.00,6.000000,,2013-10-28 01:42:00,
2013-10-27 19:52:00,49.0,26.0,-100.00,NNE,12,5.0,7.0,41,0.00,,,0.00,6.000000,,2013-10-28 01:52:00,
2013-10-27 20:22:00,45.0,25.0,-100.00,NNE,15,7.0,8.0,46,0.00,,,0.00,0.000000,,2013-10-28 02:22:00,
2013-10-27 20:32:00,45.0,25.0,-100.00,NNE,15,7.0,8.0,46,0.00,,,0.00,0.000000,,2013-10-28 02:32:00,
2013-10-27 20:42:00,45.0,25.0,-100.00,NNE,15,7.0,8.0,46,0.00,,,0.00,0.000000,,2013-10-28 02:42:00,
2013-10-27 20:52:00,45.0,25.0,-100.00,NNE,15,7.0,8.0,46,0.00,,,0.00,0.000000,,2013-10-28 02:52:00,
2013-10-27 21:22:00,46.0,25.0,-100.00,NNE,21,6.0,10.0,43,0.00,,,0.00,0.000000,,2013-10-28 03:22:00,
2013-10-27 21:34:00,46.0,25.0,-100.00,NNE,21,6.0,10.0,43,0.00,,,0.00,0.000000,,2013-10-28 03:34:00,
2013-10-27 21:44:00,46.0,25.0,-100.00,NNE,21,6.0,10.0,43,0.00,,,0.00,0.000000,,2013-10-28 03:44:00,
2013-10-27 22:23:00,45.0,25.0,-100.00,NE,51,2.0,7.0,45,-99.99,,,0.00,0.000000,,2013-10-28 04:23:00,
2013-10-27 22:34:00,45.0,25.0,-100.00,NE,51,2.0,7.0,45,-99.99,,,0.00,0.000000,,2013-10-28 04:34:00,
2013-10-27 22:43:00,45.0,25.0,-100.00,NE,51,2.0,7.0,45,-99.99,,,0.00,0.000000,,2013-10-28 04:43:00,
2013-10-27 23:53:00,46.0,26.0,-100.00,East,85,1.0,5.0,46,0.00,,,0.00,0.000000,,2013-10-28 05:53:00,